Location: Bachas
(43.2439°N, 0.9375°E)
Time: 06:23:52
(UTC+00:00)

NOSS 3-1 (A) - Pass Details

Date: 18 February 2020
Orbit: 761 x 1452 km, 63.4° (Epoch: 26 March)

Event Time Altitude Azimuth Distance (km) Brightness Sun altitude
Exits shadow 04:44:07 30° 308° (NW) 2,119 4.8 -23.7°
Maximum altitude 04:48:18 60° 240° (WSW) 1,499 4.1 -22.9°
Drops below altitude 10° 04:56:50 10° 164° (SSE) 3,522 6.5 -21.4°
Sets 04:59:54 0° 161° (SSE) 4,525 7.2 -20.8°
